星链-11360 (STARLINK-11360)

导读 | 豆包AI

STARLINK-11360是美国太空探索技术公司SpaceX旗下星链星座的一员,于2024年10月18日发射入轨。作为低轨通信卫星,运行在近地轨道,为全球提供高速低延迟卫星互联网服务,覆盖偏远地区,服务家庭与商业用户,也可支持应急通信场景,是星链大规模扩展星座部署中的一颗卫星,助力全球网络覆盖。

基本信息
目录编号:
61586
目录名称:
STARLINK-11360
国际标识:
2024-187N
轨道中心:
EARTH
卫星名称:
星链-11360
卫星全名:
星链-11360 (STARLINK-11360)
卫星状态:
在轨 (已飞行513 天)
发射日期:
2024-10-18 UTC
国别 :
美国 (US)
星等 :
--
轨道信息
数据来源 国际轨道数据
星历时间: 2026-03-15T03:28:20+0800
16小时前
查看轨道信息
半长轴: 6737.843km
偏心率: 0.0001205
轨道倾角: 53.158°
近地点辐角 64.573°
升交点赤经 271.079°
平近点角 295.542°
近地点: 358.894km
远地点: 360.518km
周期: 91.736分钟
每日圈数: 15.697176
详细信息
固有亮度:
5
最大亮度:
2.5
卫星平台:
Starlink V1.0
覆盖范围:
全球
运营商:
太空探索技术公司
运营商所在国:
美国
制造商(研发单位):
太空探索技术公司
制造商所在国:
美国
使用方式:
暂无
卫星简介
Starlink 计划是 SpaceX 推出的全球卫星互联网项目,通过发射低轨道卫星,为全球尤其是偏远地区提供高速、低延迟的互联网服务。自 2019 年起,Starlink 已部署数千颗卫星,旨在缩小全球数字鸿沟,推动互联网普及。该项目还为军事、航空等行业提供通信支持,带来广泛经济效益。
2D轨道图
3D轨道图
轨道高度分析图
轨道倾角分析图
轨道综合分析图
查看轨道综合分析图